Weather History for Cook, MN

Change the Weather History Date:

Sunday, January 20, 2013

  Actual Average Record
Temperature  
Mean Temperature -10 °F -  
Max Temperature -2 °F 15 °F 23 °F (1997)
Min Temperature -18 °F -1 °F -29 °F (2008)
Degree Days  
Heating Degree Days 75    
Moisture  
Dew Point -16 °F    
Average Humidity 78    
Maximum Humidity 84    
Minimum Humidity 65    
Precipitation  
Precipitation 0.00 in - - ()
Sea Level Pressure  
Sea Level Pressure 30.17 in    
Wind  
Wind Speed 6 mph (West)    
Max Wind Speed 15 mph    
Max Gust Speed 20 mph    
Visibility 9 miles    
Events      
Averages and records for this station are not official NWS values.
T = Trace of Precipitation, MM = Missing Value Source: NWS Daily Summary

Daily Weather History Graph

Daily Weather History Graph

Search for Another Location

Airport:

Trip Planner

Search our weather history database for the weather conditions in past years. The results will help you decide how hot, cold, wet, or windy it might be!

Date:

Astronomy

Jan. 20, 2013 Rise Set
Actual Time 7:50 AM CST 4:53 PM CST
Civil Twilight 7:16 AM CST 5:27 PM CST
Nautical Twilight 6:38 AM CST 6:05 PM CST
Astronomical Twilight 6:01 AM CST 6:42 PM CST
Moon 11:56 AM CST (1/20) 2:21 AM CST (1/20)
Length of Visible Light 10h 11m
Length of Day
9h 02m
Waxing Gibbous, 66% of the Moon is Illuminated
Jan 20
Waxing Gibbous
Jan 26
Full
Feb 3
Last Quarter
Feb 10
New
Feb 17
First Quarter

Hourly Weather History & Observations

Time (CST) Temp. Windchill Dew Point Humidity Pressure Visibility Wind Dir Wind Speed Gust Speed Precip Events Conditions
12:16 AM -7.6 °F -23.4 °F -11.2 °F 84% 30.11 in 10.0 mi NW 8.1 mph - N/A   Clear
12:36 AM -7.6 °F -20.6 °F -11.2 °F 84% 30.12 in 10.0 mi WNW 5.8 mph - N/A   Scattered Clouds
12:57 AM -7.6 °F -16.5 °F -11.2 °F 84% 30.12 in 10.0 mi WNW 3.5 mph - N/A   Scattered Clouds
2:36 AM -11.2 °F -24.8 °F -14.8 °F 84% 30.16 in 10.0 mi WNW 5.8 mph - N/A   Clear
2:57 AM -11.2 °F -20.6 °F -16.6 °F 77% 30.16 in 10.0 mi WNW 3.5 mph - N/A   Clear
3:16 AM -11.2 °F -23.0 °F -16.6 °F 77% 30.15 in 10.0 mi WNW 4.6 mph - N/A   Clear
3:37 AM -13.0 °F -27.0 °F -16.6 °F 84% 30.16 in 10.0 mi West 5.8 mph - N/A   Clear
3:57 AM -14.8 °F -29.1 °F -18.4 °F 84% 30.17 in 10.0 mi West 5.8 mph - N/A   Clear
4:16 AM -14.8 °F -24.8 °F -18.4 °F 84% 30.16 in 10.0 mi West 3.5 mph - N/A   Clear
4:37 AM -14.8 °F -29.1 °F -18.4 °F 84% 30.18 in 10.0 mi West 5.8 mph - N/A   Clear
4:57 AM -14.8 °F -30.8 °F -18.4 °F 84% 30.18 in 10.0 mi West 6.9 mph - N/A   Clear
5:16 AM -14.8 °F -33.5 °F -18.4 °F 84% 30.20 in 10.0 mi West 9.2 mph - N/A   Clear
5:37 AM -14.8 °F -29.1 °F -18.4 °F 84% 30.20 in 10.0 mi West 5.8 mph - N/A   Clear
5:56 AM -14.8 °F -30.8 °F -18.4 °F 84% 30.21 in 10.0 mi West 6.9 mph - N/A   Clear
6:17 AM -14.8 °F -30.8 °F -18.4 °F 84% 30.20 in 10.0 mi West 6.9 mph - N/A   Clear
6:37 AM -14.8 °F -24.8 °F -18.4 °F 84% 30.20 in 10.0 mi West 3.5 mph - N/A   Clear
6:56 AM -14.8 °F -27.2 °F -18.4 °F 84% 30.21 in 10.0 mi West 4.6 mph - N/A   Clear
7:17 AM -16.6 °F -29.3 °F -20.2 °F 84% 30.21 in 10.0 mi West 4.6 mph - N/A   Clear
7:37 AM -16.6 °F -26.8 °F -20.2 °F 84% 30.21 in 10.0 mi West 3.5 mph - N/A   Scattered Clouds
7:56 AM -16.6 °F -26.8 °F -20.2 °F 84% 30.21 in 10.0 mi West 3.5 mph - N/A   Scattered Clouds
8:17 AM -18.4 °F -28.9 °F -23.8 °F 76% 30.22 in - West 3.5 mph - N/A   Clear
8:36 AM -18.4 °F -28.9 °F -23.8 °F 76% 30.22 in - West 3.5 mph - N/A   Clear
9:36 AM -14.8 °F -30.8 °F -18.4 °F 84% 30.22 in 10.0 mi West 6.9 mph - N/A   Clear
9:57 AM -14.8 °F -29.1 °F -18.4 °F 84% 30.23 in - West 5.8 mph - N/A   Unknown
10:16 AM -13.0 °F -30.0 °F -18.4 °F 77% 30.23 in 10.0 mi West 8.1 mph - N/A   Clear
10:36 AM -13.0 °F -27.0 °F -16.6 °F 84% 30.23 in 10.0 mi West 5.8 mph - N/A   Clear
10:57 AM - - - N/A% 30.23 in - West 5.8 mph - N/A   Unknown
11:17 AM -9.4 °F -20.9 °F -14.8 °F 77% 30.23 in - WSW 4.6 mph - N/A   Overcast
11:36 AM -9.4 °F -24.3 °F -14.8 °F 77% 30.22 in 3.0 mi West 6.9 mph - N/A   Haze
11:57 AM -7.6 °F -23.4 °F -14.8 °F 71% 30.22 in 3.0 mi West 8.1 mph - N/A   Haze
12:17 PM -7.6 °F -24.6 °F -14.8 °F 71% 30.21 in 10.0 mi West 9.2 mph - N/A   Scattered Clouds
12:36 PM -5.8 °F -22.4 °F -14.8 °F 65% 30.20 in 10.0 mi West 9.2 mph - N/A   Clear
12:56 PM -5.8 °F -18.4 °F -13.0 °F 71% 30.20 in 10.0 mi West 5.8 mph - N/A   Clear
1:17 PM -4.0 °F -21.2 °F -13.0 °F 65% 30.19 in 10.0 mi West 10.4 mph - N/A   Scattered Clouds
1:37 PM -4.0 °F -19.0 °F -13.0 °F 65% 30.18 in 10.0 mi West 8.1 mph - N/A   Clear
1:56 PM -2.2 °F -15.6 °F -11.2 °F 66% 30.16 in 10.0 mi WSW 6.9 mph - N/A   Clear
2:36 PM -2.2 °F -18.0 °F -11.2 °F 66% 30.17 in 7.0 mi West 9.2 mph - N/A   Scattered Clouds
2:56 PM -2.2 °F -18.0 °F -11.2 °F 66% 30.16 in 10.0 mi West 9.2 mph - N/A   Mostly Cloudy
3:17 PM -2.2 °F -18.9 °F -11.2 °F 66% 30.17 in 3.0 mi West 10.4 mph - N/A   Haze
4:17 PM -4.0 °F -20.2 °F -11.2 °F 71% 30.15 in 10.0 mi West 9.2 mph - N/A   Clear
4:36 PM -5.8 °F -21.2 °F -13.0 °F 71% 30.15 in 10.0 mi West 8.1 mph - N/A   Clear
4:56 PM -5.8 °F -16.7 °F -11.2 °F 77% 30.14 in 10.0 mi West 4.6 mph - N/A   Clear
5:17 PM -7.6 °F -20.6 °F -13.0 °F 77% 30.14 in 10.0 mi West 5.8 mph - N/A   Clear
5:36 PM -7.6 °F -18.8 °F -14.8 °F 71% 30.13 in 10.0 mi West 4.6 mph - N/A   Clear
5:56 PM -9.4 °F -20.9 °F -14.8 °F 77% 30.13 in 10.0 mi West 4.6 mph - N/A   Clear
6:17 PM -9.4 °F -22.7 °F -14.8 °F 77% 30.13 in 10.0 mi WSW 5.8 mph - N/A   Clear
6:36 PM -9.4 °F -20.9 °F -14.8 °F 77% 30.12 in 10.0 mi WSW 4.6 mph - N/A   Clear
6:57 PM -9.4 °F -18.6 °F -14.8 °F 77% 30.13 in 10.0 mi West 3.5 mph - N/A   Clear
7:17 PM -9.4 °F -22.7 °F -14.8 °F 77% 30.14 in 10.0 mi WSW 5.8 mph - N/A   Clear
7:36 PM -9.4 °F -22.7 °F -14.8 °F 77% 30.12 in 10.0 mi West 5.8 mph - N/A   Clear
7:57 PM -11.2 °F -23.0 °F -14.8 °F 84% 30.12 in 10.0 mi WSW 4.6 mph - N/A   Clear
8:16 PM -11.2 °F -27.8 °F -14.8 °F 84% 30.11 in 10.0 mi West 8.1 mph - N/A   Clear
8:37 PM -11.2 °F -29.0 °F -14.8 °F 84% 30.11 in 10.0 mi West 9.2 mph - N/A   Scattered Clouds
8:56 PM -11.2 °F -30.1 °F -16.6 °F 77% 30.11 in 10.0 mi West 10.4 mph 17.3 mph N/A   Mostly Cloudy
9:17 PM -11.2 °F -30.1 °F -16.6 °F 77% 30.11 in 10.0 mi West 10.4 mph - N/A   Overcast
9:36 PM -11.2 °F -29.0 °F -16.6 °F 77% 30.11 in 10.0 mi West 9.2 mph - N/A   Scattered Clouds
9:57 PM -11.2 °F -31.1 °F -16.6 °F 77% 30.11 in 5.0 mi West 11.5 mph - N/A   Haze
10:16 PM -13.0 °F -36.0 °F -18.4 °F 77% 30.12 in 5.0 mi West 15.0 mph 19.6 mph N/A   Haze
10:37 PM -13.0 °F -33.4 °F -18.4 °F 77% 30.12 in 7.0 mi West 11.5 mph - N/A   Scattered Clouds
10:57 PM -14.8 °F -33.5 °F -20.2 °F 77% 30.12 in 10.0 mi West 9.2 mph 16.1 mph N/A   Clear
11:16 PM -14.8 °F -34.6 °F -20.2 °F 77% 30.12 in 10.0 mi West 10.4 mph - N/A   Mostly Cloudy
11:37 PM -14.8 °F -33.5 °F -20.2 °F 77% 30.12 in 10.0 mi West 9.2 mph - N/A   Mostly Cloudy